Back to catalog

CZ-6A DEB

AlivePO
NORAD 61137·DEBRIS·🇨🇳 China

Launched Aug 6, 2024 from Taiyuan Satellite Launch Center

Loading…

Next Passes (next 24 hours)

TLE

FreshSource: Space-Track

Epoch: Sep 13, 2026, 11:35 UTC

1 61137U 24140QF  26256.48275480  .00001201  00000-0  70959-3 0  9995
2 61137  88.9799 266.0779 0144538 357.6564   2.3921 14.02153572105326

Track CZ-6A DEB in real time with AllMySat

Download on the App Store